VIV2062 MMUN-MMQT

Flight info

Callsign VIV2062
Flight time 2h 13m
Altitude 38000
Route UDGUV2A UDGUV UT78 DURPI DCT LIDAM UT23 TAM UJ14 TMN DCT MORAS UJ17 QET
Aircraft A20N/M-SDE2E3FGHIRWXY/LB1

Departure

Time 2026-04-23 23:16
Airport Cancún International Airport (MMUN)

Arrival

Time 2026-04-24 01:29
Airport Querétaro Intercontinental Airport (MMQT)
Time Latitude Longitude Altitude Speed Heading
2026-04-23 22:03 21.03903 -86.87495 28 ft 0 kts 28°
2026-04-23 23:01 21.03898 -86.87497 28 ft 2 kts 27°
2026-04-23 23:01 21.03885 -86.87504 28 ft 2 kts 27°
2026-04-23 23:01 21.03877 -86.87509 28 ft 2 kts 25°
2026-04-23 23:01 21.03862 -86.87513 28 ft 2 kts
2026-04-23 23:02 21.03847 -86.87514 28 ft 2 kts 352°
2026-04-23 23:02 21.03833 -86.87510 28 ft 2 kts 339°
2026-04-23 23:02 21.03820 -86.87503 28 ft 2 kts 324°
2026-04-23 23:02 21.03808 -86.87492 28 ft 2 kts 310°
2026-04-23 23:03 21.03804 -86.87485 28 ft 1 kts 301°
2026-04-23 23:03 21.03802 -86.87483 28 ft 0 kts 303°
2026-04-23 23:05 21.03803 -86.87484 28 ft 0 kts 303°
2026-04-23 23:06 21.03806 -86.87490 28 ft 1 kts 304°
2026-04-23 23:06 21.03815 -86.87503 28 ft 1 kts 304°
2026-04-23 23:06 21.03826 -86.87522 28 ft 4 kts 295°
2026-04-23 23:06 21.03828 -86.87560 28 ft 6 kts 259°
2026-04-23 23:07 21.03818 -86.87614 28 ft 7 kts 258°
2026-04-23 23:07 21.03831 -86.87669 28 ft 8 kts 303°
2026-04-23 23:07 21.03865 -86.87722 28 ft 9 kts 303°
2026-04-23 23:07 21.03901 -86.87779 28 ft 9 kts 303°
2026-04-23 23:08 21.03938 -86.87837 28 ft 9 kts 304°
2026-04-23 23:08 21.03975 -86.87897 28 ft 9 kts 304°
2026-04-23 23:08 21.04013 -86.87958 28 ft 9 kts 303°
2026-04-23 23:08 21.04052 -86.88020 28 ft 9 kts 304°
2026-04-23 23:09 21.04090 -86.88081 28 ft 10 kts 303°
2026-04-23 23:09 21.04131 -86.88148 28 ft 11 kts 303°
2026-04-23 23:09 21.04176 -86.88219 28 ft 12 kts 303°
2026-04-23 23:09 21.04218 -86.88287 28 ft 9 kts 304°
2026-04-23 23:10 21.04257 -86.88348 28 ft 10 kts 304°
2026-04-23 23:10 21.04301 -86.88419 28 ft 11 kts 306°
2026-04-23 23:10 21.04349 -86.88494 28 ft 12 kts 304°
2026-04-23 23:10 21.04393 -86.88566 28 ft 10 kts 303°
2026-04-23 23:11 21.04437 -86.88636 28 ft 11 kts 304°
2026-04-23 23:11 21.04485 -86.88713 28 ft 12 kts 304°
2026-04-23 23:11 21.04538 -86.88796 28 ft 13 kts 303°
2026-04-23 23:11 21.04581 -86.88866 28 ft 9 kts 303°
2026-04-23 23:12 21.04621 -86.88930 28 ft 8 kts 303°
2026-04-23 23:12 21.04643 -86.88989 28 ft 9 kts 262°
2026-04-23 23:12 21.04621 -86.89021 28 ft 0 kts 213°
2026-04-23 23:13 21.04620 -86.89022 28 ft 0 kts 213°
2026-04-23 23:13 21.04613 -86.89027 28 ft 1 kts 213°
2026-04-23 23:14 21.04600 -86.89036 28 ft 2 kts 213°
2026-04-23 23:14 21.04578 -86.89050 28 ft 4 kts 213°
2026-04-23 23:14 21.04548 -86.89072 28 ft 6 kts 212°
2026-04-23 23:14 21.04508 -86.89061 28 ft 7 kts 127°
2026-04-23 23:15 21.04504 -86.89056 28 ft 0 kts 123°
2026-04-23 23:16 21.04472 -86.89005 28 ft 35 kts 123°
2026-04-23 23:16 21.04187 -86.88547 28 ft 108 kts 125°
2026-04-23 23:16 21.03659 -86.87703 74 ft 160 kts 125°
2026-04-23 23:16 21.03047 -86.86681 652 ft 165 kts 122°
2026-04-23 23:17 21.02469 -86.85633 1410 ft 165 kts 122°
2026-04-23 23:17 21.01834 -86.84615 2023 ft 171 kts 137°
2026-04-23 23:17 21.00727 -86.84057 2425 ft 189 kts 172°
2026-04-23 23:17 20.99380 -86.84345 2809 ft 210 kts 206°
2026-04-23 23:18 20.98144 -86.85267 3223 ft 229 kts 216°
2026-04-23 23:18 20.96801 -86.86342 3672 ft 248 kts 214°
2026-04-23 23:18 20.95357 -86.87433 4166 ft 266 kts 214°
2026-04-23 23:18 20.93955 -86.88786 4842 ft 277 kts 237°
2026-04-23 23:19 20.93299 -86.90688 5693 ft 277 kts 262°
2026-04-23 23:19 20.93050 -86.92725 6584 ft 278 kts 263°
2026-04-23 23:19 20.92797 -86.94756 7447 ft 280 kts 263°
2026-04-23 23:19 20.92525 -86.96800 8275 ft 283 kts 263°
2026-04-23 23:20 20.92233 -86.98895 9108 ft 285 kts 264°
2026-04-23 23:20 20.91935 -87.00975 9929 ft 287 kts 264°
2026-04-23 23:20 20.91630 -87.03094 10641 ft 293 kts 264°
2026-04-23 23:20 20.91316 -87.05292 11043 ft 310 kts 264°
2026-04-23 23:21 20.90979 -87.07642 11489 ft 324 kts 264°
2026-04-23 23:21 20.90637 -87.10006 12170 ft 329 kts 264°
2026-04-23 23:21 20.90283 -87.12429 12951 ft 331 kts 264°
2026-04-23 23:21 20.89928 -87.14868 13723 ft 332 kts 264°
2026-04-23 23:22 20.89574 -87.17310 14426 ft 335 kts 264°
2026-04-23 23:22 20.89220 -87.19762 15100 ft 338 kts 264°
2026-04-23 23:22 20.88854 -87.22263 15760 ft 341 kts 264°
2026-04-23 23:22 20.88493 -87.24742 16419 ft 343 kts 264°
2026-04-23 23:23 20.88128 -87.27253 17059 ft 345 kts 264°
2026-04-23 23:23 20.87760 -87.29771 17679 ft 347 kts 264°
2026-04-23 23:23 20.87385 -87.32340 18266 ft 350 kts 263°
2026-04-23 23:23 20.87007 -87.34916 18847 ft 353 kts 263°
2026-04-23 23:24 20.86630 -87.37488 19416 ft 355 kts 263°
2026-04-23 23:24 20.86243 -87.40107 19985 ft 358 kts 264°
2026-04-23 23:24 20.85854 -87.42745 20556 ft 361 kts 264°
2026-04-23 23:24 20.85468 -87.45379 21100 ft 363 kts 263°
2026-04-23 23:25 20.85073 -87.48068 21660 ft 366 kts 263°
2026-04-23 23:25 20.84677 -87.50751 22187 ft 369 kts 263°
2026-04-23 23:25 20.84274 -87.53471 22725 ft 372 kts 263°
2026-04-23 23:25 20.83873 -87.56169 23273 ft 374 kts 263°
2026-04-23 23:26 20.83464 -87.58925 23817 ft 376 kts 264°
2026-04-23 23:26 20.83055 -87.61676 24323 ft 379 kts 264°
2026-04-23 23:26 20.82638 -87.64494 24846 ft 381 kts 264°
2026-04-23 23:26 20.82224 -87.67272 25379 ft 383 kts 264°
2026-04-23 23:27 20.81807 -87.70071 25848 ft 386 kts 264°
2026-04-23 23:27 20.81385 -87.72917 26332 ft 389 kts 264°
2026-04-23 23:27 20.81043 -87.75784 26847 ft 389 kts 267°
2026-04-23 23:27 20.80852 -87.78645 27278 ft 390 kts 270°
2026-04-23 23:28 20.80809 -87.81557 27483 ft 397 kts 274°
2026-04-23 23:28 20.80869 -87.84546 27649 ft 405 kts 274°
2026-04-23 23:28 20.80936 -87.87582 27932 ft 410 kts 274°
2026-04-23 23:28 20.81003 -87.90643 28321 ft 412 kts 274°
2026-04-23 23:29 20.81068 -87.93668 28765 ft 411 kts 274°
2026-04-23 23:29 20.81133 -87.96718 29270 ft 409 kts 274°
2026-04-23 23:29 20.81200 -87.99728 29743 ft 407 kts 274°
2026-04-23 23:29 20.81265 -88.02750 30198 ft 406 kts 274°
2026-04-23 23:30 20.81330 -88.05750 30602 ft 405 kts 274°
2026-04-23 23:30 20.81391 -88.08733 30989 ft 405 kts 273°
2026-04-23 23:30 20.81454 -88.11748 31358 ft 404 kts 273°
2026-04-23 23:30 20.81515 -88.14726 31742 ft 403 kts 273°
2026-04-23 23:31 20.81576 -88.17710 32117 ft 402 kts 273°
2026-04-23 23:31 20.81638 -88.20715 32475 ft 402 kts 272°
2026-04-23 23:31 20.81695 -88.23668 32824 ft 401 kts 272°
2026-04-23 23:31 20.81753 -88.26653 33160 ft 400 kts 272°
2026-04-23 23:32 20.81812 -88.29584 33514 ft 399 kts 272°
2026-04-23 23:32 20.81869 -88.32569 33893 ft 398 kts 272°
2026-04-23 23:32 20.81926 -88.35482 34252 ft 397 kts 271°
2026-04-23 23:32 20.81982 -88.38442 34619 ft 395 kts 271°
2026-04-23 23:33 20.82034 -88.41342 34949 ft 394 kts 271°
2026-04-23 23:33 20.82089 -88.44251 35258 ft 393 kts 271°
2026-04-23 23:33 20.82144 -88.47181 35560 ft 392 kts 271°
2026-04-23 23:33 20.82197 -88.50057 35844 ft 391 kts 271°
2026-04-23 23:34 20.82247 -88.52961 36119 ft 390 kts 271°
2026-04-23 23:34 20.82299 -88.55852 36315 ft 390 kts 271°
2026-04-23 23:34 20.82350 -88.58773 36492 ft 391 kts 271°
2026-04-23 23:34 20.82401 -88.61673 36657 ft 392 kts 271°
2026-04-23 23:35 20.82453 -88.64576 36799 ft 393 kts 271°
2026-04-23 23:35 20.82504 -88.67514 36978 ft 393 kts 271°
2026-04-23 23:35 20.82554 -88.70441 37154 ft 393 kts 271°
2026-04-23 23:35 20.82603 -88.73352 37290 ft 394 kts 270°
2026-04-23 23:36 20.82653 -88.76277 37431 ft 395 kts 271°
2026-04-23 23:36 20.82700 -88.79215 37569 ft 395 kts 271°
2026-04-23 23:36 20.82751 -88.82135 37696 ft 396 kts 271°
2026-04-23 23:36 20.82799 -88.85079 37807 ft 397 kts 270°
2026-04-23 23:37 20.82844 -88.88033 37824 ft 397 kts 271°
2026-04-23 23:37 20.82938 -88.93909 37825 ft 398 kts 270°
2026-04-23 23:38 20.83029 -88.99826 37826 ft 398 kts 271°
2026-04-23 23:38 20.83119 -89.05763 37824 ft 398 kts 271°
2026-04-23 23:39 20.83208 -89.11639 37824 ft 398 kts 271°
2026-04-23 23:39 20.83312 -89.17567 37823 ft 399 kts 272°
2026-04-23 23:40 20.83817 -89.23440 37824 ft 399 kts 277°
2026-04-23 23:40 20.84855 -89.29247 37825 ft 399 kts 282°
2026-04-23 23:41 20.86100 -89.35028 37830 ft 399 kts 282°
2026-04-23 23:41 20.87346 -89.40807 37831 ft 399 kts 282°
2026-04-23 23:42 20.88593 -89.46589 37826 ft 400 kts 282°
2026-04-23 23:42 20.89837 -89.52374 37825 ft 399 kts 282°
2026-04-23 23:43 20.91079 -89.58156 37827 ft 399 kts 282°
2026-04-23 23:43 20.92317 -89.63930 37835 ft 399 kts 282°
2026-04-23 23:44 20.93561 -89.69733 37842 ft 400 kts 282°
2026-04-23 23:44 20.94791 -89.75477 37835 ft 400 kts 282°
2026-04-23 23:45 20.96027 -89.81276 37838 ft 400 kts 282°
2026-04-23 23:45 20.97259 -89.87058 37839 ft 400 kts 282°
2026-04-23 23:46 20.98497 -89.92877 37845 ft 400 kts 282°
2026-04-23 23:46 20.99720 -89.98644 37845 ft 400 kts 282°
2026-04-23 23:47 21.00953 -90.04452 37844 ft 400 kts 282°
2026-04-23 23:47 21.02191 -90.10310 37850 ft 400 kts 282°
2026-04-23 23:48 21.03413 -90.16092 37849 ft 400 kts 283°
2026-04-23 23:48 21.04635 -90.21887 37849 ft 400 kts 283°
2026-04-23 23:49 21.06462 -90.30575 37842 ft 400 kts 283°
2026-04-23 23:49 21.07677 -90.36362 37842 ft 400 kts 283°
2026-04-23 23:50 21.08890 -90.42152 37845 ft 400 kts 283°
2026-04-23 23:50 21.10104 -90.47960 37840 ft 400 kts 284°
2026-04-23 23:51 21.11316 -90.53759 37848 ft 400 kts 284°
2026-04-23 23:51 21.12520 -90.59539 37841 ft 400 kts 284°
2026-04-23 23:52 21.13727 -90.65340 37843 ft 400 kts 284°
2026-04-23 23:52 21.14937 -90.71167 37833 ft 400 kts 284°
2026-04-23 23:53 21.16132 -90.76928 37848 ft 399 kts 284°
2026-04-23 23:53 21.17327 -90.82709 37849 ft 399 kts 284°
2026-04-23 23:54 21.18527 -90.88515 37851 ft 400 kts 284°
2026-04-23 23:54 21.19727 -90.94328 37856 ft 400 kts 284°
2026-04-23 23:55 21.20919 -91.00127 37851 ft 399 kts 284°
2026-04-23 23:55 21.22111 -91.05931 37855 ft 399 kts 285°
2026-04-23 23:56 21.23293 -91.11706 37859 ft 399 kts 285°
2026-04-23 23:56 21.24488 -91.17534 37851 ft 399 kts 285°
2026-04-23 23:57 21.25669 -91.23315 37854 ft 399 kts 285°
2026-04-23 23:57 21.26856 -91.29124 37855 ft 399 kts 285°
2026-04-23 23:58 21.28028 -91.34890 37862 ft 399 kts 285°
2026-04-23 23:58 21.29206 -91.40685 37853 ft 399 kts 285°
2026-04-23 23:59 21.30383 -91.46503 37851 ft 398 kts 286°
2026-04-23 23:59 21.31558 -91.52293 37853 ft 398 kts 286°
2026-04-24 00:00 21.32723 -91.58054 37842 ft 398 kts 286°
2026-04-24 00:00 21.33895 -91.63867 37845 ft 398 kts 286°
2026-04-24 00:01 21.35064 -91.69663 37838 ft 398 kts 285°
2026-04-24 00:01 21.36222 -91.75440 37844 ft 398 kts 286°
2026-04-24 00:02 21.37376 -91.81190 37839 ft 398 kts 286°
2026-04-24 00:02 21.38540 -91.87016 37842 ft 397 kts 286°
2026-04-24 00:03 21.39701 -91.92810 37850 ft 397 kts 286°
2026-04-24 00:03 21.40852 -91.98584 37863 ft 397 kts 287°
2026-04-24 00:04 21.42020 -92.04462 37860 ft 397 kts 287°
2026-04-24 00:04 21.43175 -92.10262 37858 ft 397 kts 287°
2026-04-24 00:05 21.44316 -92.16031 37860 ft 397 kts 287°
2026-04-24 00:05 21.45463 -92.21819 37862 ft 397 kts 287°
2026-04-24 00:06 21.46606 -92.27605 37855 ft 397 kts 287°
2026-04-24 00:06 21.47745 -92.33382 37858 ft 396 kts 287°
2026-04-24 00:07 21.48879 -92.39143 37849 ft 396 kts 288°
2026-04-24 00:07 21.50010 -92.44911 37847 ft 396 kts 288°
2026-04-24 00:08 21.51143 -92.50690 37849 ft 395 kts 288°
2026-04-24 00:08 21.52273 -92.56454 37846 ft 396 kts 288°
2026-04-24 00:09 21.53400 -92.62218 37844 ft 396 kts 288°
2026-04-24 00:09 21.54527 -92.68012 37839 ft 395 kts 288°
2026-04-24 00:10 21.55648 -92.73776 37834 ft 395 kts 288°
2026-04-24 00:10 21.56766 -92.79524 37830 ft 395 kts 288°
2026-04-24 00:11 21.57881 -92.85274 37832 ft 395 kts 288°
2026-04-24 00:11 21.58998 -92.91051 37831 ft 395 kts 288°
2026-04-24 00:12 21.60114 -92.96831 37829 ft 395 kts 289°
2026-04-24 00:12 21.61231 -93.02628 37829 ft 394 kts 289°
2026-04-24 00:13 21.62340 -93.08395 37828 ft 394 kts 289°
2026-04-24 00:13 21.63449 -93.14168 37827 ft 394 kts 289°
2026-04-24 00:14 21.64552 -93.19919 37826 ft 394 kts 288°
2026-04-24 00:14 21.65647 -93.25649 37825 ft 394 kts 288°
2026-04-24 00:15 21.66749 -93.31429 37824 ft 394 kts 289°
2026-04-24 00:15 21.67845 -93.37183 37824 ft 394 kts 289°
2026-04-24 00:16 21.68937 -93.42927 37824 ft 394 kts 288°
2026-04-24 00:16 21.70036 -93.48710 37825 ft 394 kts 288°
2026-04-24 00:17 21.71123 -93.54462 37829 ft 394 kts 288°
2026-04-24 00:17 21.72209 -93.60206 37829 ft 394 kts 288°
2026-04-24 00:18 21.73293 -93.65958 37831 ft 393 kts 288°
2026-04-24 00:18 21.74377 -93.71721 37828 ft 393 kts 288°
2026-04-24 00:19 21.75461 -93.77488 37828 ft 393 kts 288°
2026-04-24 00:19 21.76537 -93.83226 37826 ft 393 kts 288°
2026-04-24 00:20 21.77614 -93.88988 37827 ft 393 kts 288°
2026-04-24 00:20 21.78690 -93.94743 37828 ft 393 kts 288°
2026-04-24 00:21 21.79759 -94.00482 37826 ft 394 kts 288°
2026-04-24 00:21 21.80833 -94.06261 37826 ft 393 kts 288°
2026-04-24 00:22 21.81902 -94.12020 37826 ft 393 kts 288°
2026-04-24 00:22 21.82964 -94.17753 37826 ft 393 kts 288°
2026-04-24 00:23 21.84033 -94.23543 37826 ft 393 kts 288°
2026-04-24 00:23 21.85100 -94.29321 37824 ft 393 kts 288°
2026-04-24 00:24 21.86155 -94.35053 37819 ft 393 kts 288°
2026-04-24 00:24 21.87212 -94.40808 37815 ft 393 kts 288°
2026-04-24 00:25 21.88270 -94.46576 37807 ft 393 kts 288°
2026-04-24 00:25 21.89323 -94.52340 37808 ft 393 kts 288°
2026-04-24 00:26 21.90371 -94.58076 37812 ft 394 kts 288°
2026-04-24 00:26 21.91421 -94.63839 37811 ft 393 kts 288°
2026-04-24 00:27 21.92474 -94.69632 37813 ft 393 kts 288°
2026-04-24 00:27 21.93518 -94.75382 37813 ft 393 kts 287°
2026-04-24 00:28 21.94564 -94.81164 37808 ft 393 kts 287°
2026-04-24 00:28 21.95606 -94.86937 37810 ft 393 kts 287°
2026-04-24 00:29 21.96646 -94.92699 37809 ft 394 kts 287°
2026-04-24 00:29 21.97684 -94.98481 37810 ft 394 kts 287°
2026-04-24 00:30 21.98463 -95.04324 37803 ft 394 kts 284°
2026-04-24 00:30 21.99149 -95.10168 37805 ft 394 kts 284°
2026-04-24 00:31 21.99830 -95.16004 37805 ft 394 kts 284°
2026-04-24 00:31 22.00517 -95.21897 37803 ft 394 kts 284°
2026-04-24 00:32 22.01198 -95.27771 37804 ft 395 kts 284°
2026-04-24 00:32 22.01874 -95.33614 37804 ft 394 kts 284°
2026-04-24 00:33 22.02553 -95.39493 37803 ft 395 kts 283°
2026-04-24 00:33 22.03225 -95.45360 37804 ft 395 kts 283°
2026-04-24 00:34 22.03895 -95.51217 37805 ft 395 kts 284°
2026-04-24 00:34 22.04563 -95.57069 37807 ft 394 kts 284°
2026-04-24 00:35 22.05230 -95.62909 37805 ft 394 kts 283°
2026-04-24 00:35 22.05892 -95.68765 37806 ft 395 kts 283°
2026-04-24 00:36 22.06560 -95.74668 37807 ft 395 kts 283°
2026-04-24 00:36 22.07232 -95.80624 37808 ft 396 kts 283°
2026-04-24 00:37 22.07891 -95.86500 37806 ft 396 kts 283°
2026-04-24 00:37 22.08555 -95.92388 37811 ft 397 kts 283°
2026-04-24 00:38 22.09201 -95.98292 37792 ft 397 kts 283°
2026-04-24 00:38 22.09858 -96.04172 37786 ft 397 kts 283°
2026-04-24 00:39 22.10516 -96.10075 37788 ft 396 kts 283°
2026-04-24 00:39 22.11166 -96.15947 37785 ft 396 kts 283°
2026-04-24 00:40 22.11821 -96.21891 37785 ft 397 kts 283°
2026-04-24 00:40 22.12466 -96.27769 37786 ft 397 kts 283°
2026-04-24 00:41 22.13112 -96.33672 37786 ft 398 kts 283°
2026-04-24 00:41 22.13761 -96.39626 37787 ft 397 kts 283°
2026-04-24 00:42 22.14403 -96.45533 37787 ft 397 kts 283°
2026-04-24 00:42 22.15041 -96.51439 37787 ft 398 kts 283°
2026-04-24 00:43 22.15676 -96.57343 37788 ft 398 kts 283°
2026-04-24 00:43 22.16313 -96.63300 37790 ft 398 kts 282°
2026-04-24 00:44 22.16947 -96.69259 37791 ft 398 kts 282°
2026-04-24 00:44 22.17570 -96.75144 37793 ft 397 kts 282°
2026-04-24 00:45 22.18198 -96.81097 37791 ft 399 kts 282°
2026-04-24 00:45 22.18823 -96.87038 37791 ft 399 kts 282°
2026-04-24 00:46 22.19445 -96.92947 37788 ft 401 kts 282°
2026-04-24 00:46 22.20068 -96.98931 37790 ft 399 kts 282°
2026-04-24 00:47 22.20686 -97.04868 37786 ft 399 kts 282°
2026-04-24 00:47 22.21299 -97.10787 37788 ft 400 kts 282°
2026-04-24 00:48 22.21915 -97.16743 37789 ft 398 kts 282°
2026-04-24 00:48 22.22525 -97.22658 37786 ft 398 kts 282°
2026-04-24 00:49 22.23137 -97.28610 37782 ft 399 kts 282°
2026-04-24 00:49 22.23740 -97.34517 37778 ft 399 kts 282°
2026-04-24 00:50 22.24344 -97.40459 37771 ft 400 kts 282°
2026-04-24 00:50 22.24953 -97.46414 37775 ft 401 kts 282°
2026-04-24 00:51 22.25560 -97.52354 37776 ft 401 kts 282°
2026-04-24 00:51 22.26164 -97.58335 37778 ft 401 kts 282°
2026-04-24 00:52 22.26766 -97.64286 37777 ft 401 kts 282°
2026-04-24 00:52 22.27368 -97.70259 37779 ft 401 kts 281°
2026-04-24 00:53 22.27967 -97.76223 37782 ft 401 kts 281°
2026-04-24 00:53 22.28230 -97.82252 37777 ft 406 kts 275°
2026-04-24 00:54 22.27840 -97.88354 37778 ft 411 kts 268°
2026-04-24 00:54 22.26778 -97.94436 37779 ft 416 kts 262°
2026-04-24 00:55 22.25218 -98.00486 37777 ft 417 kts 261°
2026-04-24 00:55 22.23635 -98.06492 37773 ft 418 kts 261°
2026-04-24 00:56 22.22050 -98.12495 37772 ft 418 kts 260°
2026-04-24 00:56 22.20454 -98.18537 37768 ft 418 kts 260°
2026-04-24 00:57 22.18861 -98.24558 37767 ft 419 kts 260°
2026-04-24 00:58 22.16461 -98.33604 37756 ft 419 kts 260°
2026-04-24 00:58 22.14852 -98.39645 37756 ft 419 kts 260°
2026-04-24 00:59 22.13244 -98.45688 37753 ft 420 kts 260°
2026-04-24 00:59 22.11635 -98.51730 37753 ft 419 kts 260°
2026-04-24 01:00 22.10016 -98.57795 37751 ft 419 kts 260°
2026-04-24 01:00 22.08406 -98.63814 37754 ft 420 kts 260°
2026-04-24 01:01 22.06782 -98.69876 37749 ft 420 kts 259°
2026-04-24 01:01 22.05423 -98.75996 37747 ft 415 kts 266°
2026-04-24 01:02 22.04874 -98.82173 37742 ft 411 kts 273°
2026-04-24 01:02 22.05119 -98.88229 37750 ft 407 kts 281°
2026-04-24 01:03 22.06003 -98.94256 37751 ft 405 kts 283°
2026-04-24 01:03 22.06960 -99.00225 37753 ft 405 kts 284°
2026-04-24 01:04 22.07912 -99.06192 37761 ft 406 kts 283°
2026-04-24 01:04 22.08870 -99.12202 37768 ft 406 kts 283°
2026-04-24 01:05 22.09819 -99.18182 37780 ft 406 kts 283°
2026-04-24 01:05 22.10762 -99.24150 37789 ft 405 kts 283°
2026-04-24 01:06 22.11704 -99.30130 37815 ft 405 kts 283°
2026-04-24 01:06 22.12644 -99.36103 37874 ft 404 kts 283°
2026-04-24 01:07 22.13582 -99.42067 37924 ft 404 kts 283°
2026-04-24 01:07 22.14049 -99.45057 37616 ft 407 kts 283°
2026-04-24 01:07 22.14296 -99.48112 36904 ft 412 kts 272°
2026-04-24 01:07 22.13972 -99.51184 36252 ft 417 kts 262°
2026-04-24 01:08 22.13094 -99.54178 35538 ft 424 kts 251°
2026-04-24 01:08 22.11688 -99.56947 34821 ft 431 kts 240°
2026-04-24 01:08 22.09750 -99.59436 34154 ft 437 kts 229°
2026-04-24 01:08 22.07342 -99.61499 33457 ft 445 kts 217°
2026-04-24 01:09 22.04566 -99.63010 32767 ft 452 kts 206°
2026-04-24 01:09 22.01617 -99.64215 32076 ft 454 kts 205°
2026-04-24 01:09 21.98653 -99.65375 31364 ft 456 kts 204°
2026-04-24 01:09 21.95647 -99.66549 30613 ft 458 kts 204°
2026-04-24 01:10 21.92642 -99.67728 29845 ft 460 kts 204°
2026-04-24 01:10 21.89645 -99.68913 29069 ft 462 kts 204°
2026-04-24 01:10 21.86613 -99.70116 28273 ft 464 kts 204°
2026-04-24 01:10 21.83581 -99.71321 27516 ft 465 kts 204°
2026-04-24 01:11 21.80531 -99.72532 26993 ft 459 kts 204°
2026-04-24 01:11 21.77551 -99.73716 26469 ft 455 kts 204°
2026-04-24 01:11 21.74610 -99.74885 25946 ft 450 kts 204°
2026-04-24 01:11 21.71669 -99.76055 25424 ft 446 kts 204°
2026-04-24 01:12 21.68789 -99.77200 24921 ft 441 kts 204°
2026-04-24 01:12 21.65917 -99.78342 24416 ft 437 kts 204°
2026-04-24 01:12 21.63055 -99.79480 23909 ft 433 kts 204°
2026-04-24 01:12 21.60265 -99.80589 23395 ft 429 kts 204°
2026-04-24 01:13 21.57460 -99.81702 22892 ft 425 kts 204°
2026-04-24 01:13 21.54701 -99.82796 22400 ft 421 kts 204°
2026-04-24 01:13 21.51973 -99.83876 21917 ft 418 kts 204°
2026-04-24 01:13 21.49242 -99.84958 21436 ft 414 kts 203°
2026-04-24 01:14 21.46514 -99.86037 20933 ft 411 kts 204°
2026-04-24 01:14 21.43849 -99.87090 20452 ft 408 kts 203°
2026-04-24 01:14 21.41178 -99.88148 20018 ft 408 kts 203°
2026-04-24 01:14 21.38538 -99.89191 19464 ft 407 kts 203°
2026-04-24 01:15 21.35870 -99.90247 18963 ft 404 kts 203°
2026-04-24 01:15 21.33251 -99.91283 18439 ft 401 kts 203°
2026-04-24 01:15 21.30618 -99.92321 17919 ft 399 kts 202°
2026-04-24 01:15 21.28032 -99.93342 17405 ft 396 kts 203°
2026-04-24 01:16 21.25434 -99.94366 16938 ft 390 kts 203°
2026-04-24 01:16 21.22919 -99.95358 16689 ft 379 kts 203°
2026-04-24 01:16 21.20493 -99.96312 16542 ft 366 kts 203°
2026-04-24 01:16 21.18111 -99.97250 16391 ft 354 kts 203°
2026-04-24 01:17 21.15856 -99.98139 16266 ft 342 kts 203°
2026-04-24 01:17 21.13639 -99.99012 16143 ft 330 kts 203°
2026-04-24 01:17 21.11513 -99.99852 15940 ft 323 kts 203°
2026-04-24 01:17 21.09407 -100.00686 15561 ft 323 kts 203°
2026-04-24 01:18 21.07309 -100.01513 15391 ft 313 kts 203°
2026-04-24 01:18 21.05306 -100.02300 15324 ft 301 kts 203°
2026-04-24 01:18 21.03365 -100.03062 15255 ft 289 kts 203°
2026-04-24 01:18 21.01522 -100.03786 15184 ft 277 kts 203°
2026-04-24 01:19 20.99731 -100.04489 14975 ft 273 kts 203°
2026-04-24 01:19 20.97942 -100.05193 14639 ft 272 kts 203°
2026-04-24 01:19 20.96149 -100.05898 14301 ft 272 kts 203°
2026-04-24 01:19 20.94386 -100.06591 13975 ft 271 kts 203°
2026-04-24 01:20 20.92619 -100.07284 13645 ft 271 kts 203°
2026-04-24 01:20 20.90834 -100.07983 13313 ft 270 kts 203°
2026-04-24 01:20 20.89075 -100.08673 13006 ft 268 kts 203°
2026-04-24 01:20 20.87333 -100.09357 12721 ft 266 kts 203°
2026-04-24 01:21 20.85592 -100.10038 12444 ft 263 kts 203°
2026-04-24 01:21 20.83867 -100.10712 12165 ft 260 kts 203°
2026-04-24 01:21 20.82139 -100.11227 12030 ft 250 kts 186°
2026-04-24 01:21 20.80483 -100.10927 12015 ft 245 kts 154°
2026-04-24 01:22 20.79145 -100.09801 12045 ft 246 kts 127°
2026-04-24 01:22 20.78243 -100.08242 12084 ft 248 kts 118°
2026-04-24 01:22 20.77394 -100.06651 12100 ft 246 kts 123°
2026-04-24 01:22 20.76401 -100.05138 12110 ft 247 kts 129°
2026-04-24 01:23 20.75275 -100.03780 12114 ft 247 kts 136°
2026-04-24 01:23 20.74008 -100.02546 12096 ft 246 kts 142°
2026-04-24 01:23 20.72620 -100.01442 11797 ft 245 kts 148°
2026-04-24 01:23 20.71172 -100.00507 11500 ft 241 kts 154°
2026-04-24 01:24 20.69665 -99.99723 11230 ft 241 kts 159°
2026-04-24 01:24 20.68101 -99.99081 10943 ft 239 kts 164°
2026-04-24 01:24 20.66500 -99.98583 10655 ft 237 kts 169°
2026-04-24 01:24 20.64897 -99.98237 10378 ft 235 kts 174°
2026-04-24 01:25 20.63277 -99.98035 10099 ft 233 kts 179°
2026-04-24 01:25 20.61642 -99.97972 9819 ft 231 kts 184°
2026-04-24 01:25 20.60094 -99.98296 9544 ft 222 kts 214°
2026-04-24 01:25 20.58997 -99.99385 9494 ft 217 kts 243°
2026-04-24 01:26 20.58544 -100.00886 9394 ft 213 kts 271°
2026-04-24 01:26 20.58695 -100.02441 9281 ft 212 kts 279°
2026-04-24 01:26 20.58911 -100.04010 9078 ft 212 kts 281°
2026-04-24 01:26 20.59195 -100.05553 8789 ft 210 kts 282°
2026-04-24 01:27 20.59491 -100.07062 8468 ft 208 kts 282°
2026-04-24 01:27 20.59783 -100.08570 8102 ft 202 kts 282°
2026-04-24 01:27 20.60076 -100.09992 7796 ft 190 kts 282°
2026-04-24 01:27 20.60338 -100.11312 7531 ft 177 kts 282°
2026-04-24 01:28 20.60585 -100.12565 7254 ft 165 kts 282°
2026-04-24 01:28 20.60817 -100.13711 6955 ft 156 kts 283°
2026-04-24 01:28 20.61052 -100.14819 6700 ft 149 kts 281°
2026-04-24 01:28 20.61247 -100.15889 6525 ft 147 kts 281°
2026-04-24 01:29 20.61440 -100.16954 6350 ft 145 kts 281°
2026-04-24 01:29 20.61621 -100.17941 6301 ft 114 kts 281°
2026-04-24 01:29 20.61734 -100.18554 6292 ft 60 kts 285°
2026-04-24 01:29 20.61785 -100.18823 6289 ft 23 kts 281°
2026-04-24 01:30 20.61816 -100.18989 6288 ft 19 kts 283°
2026-04-24 01:30 20.61868 -100.19100 6287 ft 13 kts 302°
2026-04-24 01:30 20.61916 -100.19166 6286 ft 9 kts 312°
2026-04-24 01:30 20.61959 -100.19217 6286 ft 6 kts 310°
2026-04-24 01:31 20.61988 -100.19254 6286 ft 6 kts 309°
2026-04-24 01:31 20.62023 -100.19253 6285 ft 6 kts 61°
2026-04-24 01:31 20.62020 -100.19202 6286 ft 7 kts 102°
2026-04-24 01:31 20.62009 -100.19146 6286 ft 7 kts 102°
2026-04-24 01:32 20.61999 -100.19089 6287 ft 8 kts 100°
2026-04-24 01:32 20.61988 -100.19029 6287 ft 8 kts 100°
2026-04-24 01:32 20.61977 -100.18967 6288 ft 8 kts 101°
2026-04-24 01:32 20.61966 -100.18903 6288 ft 8 kts 101°
2026-04-24 01:33 20.61953 -100.18838 6289 ft 9 kts 101°
2026-04-24 01:33 20.61941 -100.18771 6289 ft 9 kts 101°
2026-04-24 01:33 20.61946 -100.18713 6290 ft 7 kts 50°
2026-04-24 01:33 20.61993 -100.18693 6290 ft 7 kts 12°
2026-04-24 01:34 20.62041 -100.18683 6290 ft 6 kts 10°
2026-04-24 01:34 20.62082 -100.18690 6290 ft 6 kts 315°
2026-04-24 01:34 20.62097 -100.18733 6289 ft 6 kts 282°
2026-04-24 01:34 20.62109 -100.18778 6289 ft 6 kts 305°
2026-04-24 01:35 20.62151 -100.18780 6289 ft 5 kts 13°
2026-04-24 01:35 20.62179 -100.18774 6289 ft 3 kts 12°
2026-04-24 01:35 20.62194 -100.18771 6289 ft 2 kts 11°
2026-04-24 01:35 20.62202 -100.18769 6289 ft 0 kts 11°